Time,TemperatureF,DewpointF,PressureIn,WindDirection,WindDirectionDegrees,WindSpeedMPH,WindSpeedGustMPH,Humidity,HourlyPrecipIn,Conditions,Clouds,dailyrainin,SoftwareType,DateUTC
2013-06-10 00:05:00,69.2,68.0,29.87,North,10,0.0,0.0,95,0.00,,,0.00,weatherlink.com 1.10,2013-06-10 05:05:00,
2013-06-10 00:20:00,69.1,68.0,29.87,North,10,0.0,0.0,95,0.00,,,0.00,weatherlink.com 1.10,2013-06-10 05:20:00,
2013-06-10 00:35:00,69.1,68.0,29.87,North,10,0.0,0.0,95,0.00,,,0.00,weatherlink.com 1.10,2013-06-10 05:35:00,
2013-06-10 00:50:00,68.9,68.0,29.87,North,10,0.0,0.0,95,0.00,,,0.00,weatherlink.com 1.10,2013-06-10 05:50:00,
2013-06-10 01:05:00,68.8,68.0,29.87,North,10,0.0,0.0,96,0.00,,,0.00,weatherlink.com 1.10,2013-06-10 06:05:00,
2013-06-10 01:20:00,68.8,68.0,29.86,North,10,0.0,0.0,96,0.00,,,0.00,weatherlink.com 1.10,2013-06-10 06:20:00,
2013-06-10 01:35:00,68.5,67.0,29.87,North,10,0.0,0.0,96,0.00,,,0.00,weatherlink.com 1.10,2013-06-10 06:35:00,
2013-06-10 01:50:00,68.3,67.0,29.87,North,11,0.0,0.0,96,0.00,,,0.00,weatherlink.com 1.10,2013-06-10 06:50:00,
2013-06-10 02:05:00,68.1,67.0,29.87,North,11,0.0,0.0,96,0.00,,,0.00,weatherlink.com 1.10,2013-06-10 07:05:00,
2013-06-10 02:20:00,68.4,68.0,29.87,North,10,0.0,1.0,97,0.00,,,0.00,weatherlink.com 1.10,2013-06-10 07:20:00,
2013-06-10 02:35:00,69.0,68.0,29.87,North,10,0.0,0.0,97,0.00,,,0.00,weatherlink.com 1.10,2013-06-10 07:35:00,
2013-06-10 02:50:00,69.3,69.0,29.87,North,11,0.0,0.0,97,0.00,,,0.00,weatherlink.com 1.10,2013-06-10 07:50:00,
2013-06-10 03:20:00,69.1,68.0,29.87,North,10,0.0,0.0,97,0.00,,,0.00,weatherlink.com 1.10,2013-06-10 08:20:00,
2013-06-10 03:35:00,69.2,68.0,29.87,North,10,0.0,0.0,97,0.00,,,0.00,weatherlink.com 1.10,2013-06-10 08:35:00,
2013-06-10 03:50:00,69.3,69.0,29.87,North,10,0.0,0.0,97,0.00,,,0.00,weatherlink.com 1.10,2013-06-10 08:50:00,
2013-06-10 04:05:00,69.1,68.0,29.87,North,11,0.0,0.0,97,0.00,,,0.00,weatherlink.com 1.10,2013-06-10 09:05:00,
2013-06-10 04:20:00,68.7,68.0,29.87,North,10,0.0,0.0,96,0.00,,,0.00,weatherlink.com 1.10,2013-06-10 09:20:00,
2013-06-10 04:35:00,68.4,68.0,29.87,North,10,0.0,0.0,97,0.00,,,0.00,weatherlink.com 1.10,2013-06-10 09:35:00,
2013-06-10 04:50:00,68.3,68.0,29.88,North,10,0.0,0.0,97,0.00,,,0.00,weatherlink.com 1.10,2013-06-10 09:50:00,
2013-06-10 05:05:00,67.8,67.0,29.88,North,10,0.0,0.0,96,0.00,,,0.00,weatherlink.com 1.10,2013-06-10 10:05:00,
2013-06-10 05:20:00,67.3,67.0,29.89,North,10,0.0,0.0,97,0.00,,,0.00,weatherlink.com 1.10,2013-06-10 10:20:00,
2013-06-10 05:35:00,67.2,66.0,29.89,North,11,0.0,0.0,97,0.00,,,0.00,weatherlink.com 1.10,2013-06-10 10:35:00,
2013-06-10 05:50:00,67.3,67.0,29.89,North,10,0.0,0.0,97,0.00,,,0.00,weatherlink.com 1.10,2013-06-10 10:50:00,
2013-06-10 06:05:00,67.7,67.0,29.89,North,10,0.0,0.0,97,0.00,,,0.00,weatherlink.com 1.10,2013-06-10 11:05:00,
2013-06-10 06:21:00,67.9,67.0,29.90,North,10,0.0,0.0,97,0.00,,,0.00,weatherlink.com 1.10,2013-06-10 11:21:00,
2013-06-10 06:36:00,68.4,68.0,29.90,North,11,0.0,0.0,98,0.00,,,0.00,weatherlink.com 1.10,2013-06-10 11:36:00,
2013-06-10 06:51:00,68.7,68.0,29.90,North,11,0.0,0.0,97,0.00,,,0.00,weatherlink.com 1.10,2013-06-10 11:51:00,
2013-06-10 07:06:00,69.1,69.0,29.90,NNE,32,0.0,1.0,98,0.00,,,0.00,weatherlink.com 1.10,2013-06-10 12:06:00,
2013-06-10 07:21:00,70.1,70.0,29.90,NNE,32,0.0,1.0,98,0.00,,,0.00,weatherlink.com 1.10,2013-06-10 12:21:00,
2013-06-10 07:36:00,72.9,72.0,29.91,NE,47,0.0,1.0,97,0.00,,,0.00,weatherlink.com 1.10,2013-06-10 12:36:00,
2013-06-10 07:51:00,76.4,73.0,29.91,NE,47,0.0,1.0,89,0.00,,,0.00,weatherlink.com 1.10,2013-06-10 12:51:00,
2013-06-10 08:06:00,79.7,73.0,29.91,NE,47,0.0,0.0,79,0.00,,,0.00,weatherlink.com 1.10,2013-06-10 13:06:00,
2013-06-10 08:21:00,82.1,73.0,29.91,ENE,74,0.0,1.0,74,0.00,,,0.00,weatherlink.com 1.10,2013-06-10 13:21:00,
2013-06-10 08:36:00,82.4,72.0,29.91,East,79,0.0,2.0,71,0.00,,,0.00,weatherlink.com 1.10,2013-06-10 13:36:00,
2013-06-10 08:51:00,83.1,72.0,29.92,North,8,0.0,2.0,70,0.00,,,0.00,weatherlink.com 1.10,2013-06-10 13:51:00,
2013-06-10 09:21:00,83.3,73.0,29.92,SE,128,0.0,2.0,70,0.00,,,0.00,weatherlink.com 1.10,2013-06-10 14:21:00,
2013-06-10 09:36:00,84.1,73.0,29.91,SSE,151,2.0,4.0,69,0.00,,,0.00,weatherlink.com 1.10,2013-06-10 14:36:00,
2013-06-10 09:51:00,83.8,72.0,29.91,NNE,26,5.0,6.0,68,0.00,,,0.00,weatherlink.com 1.10,2013-06-10 14:51:00,
2013-06-10 10:06:00,83.7,72.0,29.91,SSE,152,0.0,6.0,67,0.00,,,0.00,weatherlink.com 1.10,2013-06-10 15:06:00,
2013-06-10 10:21:00,84.7,72.0,29.91,East,98,0.0,4.0,66,0.00,,,0.00,weatherlink.com 1.10,2013-06-10 15:21:00,
2013-06-10 10:36:00,86.1,72.0,29.91,WNW,288,1.0,5.0,63,0.00,,,0.00,weatherlink.com 1.10,2013-06-10 15:36:00,
2013-06-10 10:51:00,85.0,71.0,29.91,South,172,0.0,7.0,63,0.00,,,0.00,weatherlink.com 1.10,2013-06-10 15:51:00,
2013-06-10 11:06:00,86.4,70.0,29.91,East,94,1.0,3.0,58,0.00,,,0.00,weatherlink.com 1.10,2013-06-10 16:06:00,
2013-06-10 11:21:00,86.8,70.0,29.91,SE,131,1.0,7.0,57,0.00,,,0.00,weatherlink.com 1.10,2013-06-10 16:21:00,
2013-06-10 11:36:00,87.8,69.0,29.91,SSE,157,1.0,4.0,53,0.00,,,0.00,weatherlink.com 1.10,2013-06-10 16:36:00,
2013-06-10 11:51:00,87.9,69.0,29.91,SE,131,0.0,7.0,53,0.00,,,0.00,weatherlink.com 1.10,2013-06-10 16:51:00,
2013-06-10 12:07:00,89.3,69.0,29.91,SE,143,2.0,8.0,52,0.00,,,0.00,weatherlink.com 1.10,2013-06-10 17:07:00,
2013-06-10 12:22:00,90.1,70.0,29.90,SSW,204,1.0,4.0,51,0.00,,,0.00,weatherlink.com 1.10,2013-06-10 17:22:00,
2013-06-10 12:37:00,89.7,69.0,29.90,SW,222,2.0,6.0,50,0.00,,,0.00,weatherlink.com 1.10,2013-06-10 17:37:00,
2013-06-10 12:52:00,90.3,70.0,29.90,WSW,243,0.0,6.0,52,0.00,,,0.00,weatherlink.com 1.10,2013-06-10 17:52:00,
2013-06-10 13:07:00,91.0,69.0,29.89,SE,143,1.0,2.0,49,0.00,,,0.00,weatherlink.com 1.10,2013-06-10 18:07:00,
2013-06-10 13:22:00,91.9,69.0,29.89,WSW,257,1.0,2.0,47,0.00,,,0.00,weatherlink.com 1.10,2013-06-10 18:22:00,
2013-06-10 13:37:00,93.3,71.0,29.89,WSW,243,1.0,4.0,49,0.00,,,0.00,weatherlink.com 1.10,2013-06-10 18:37:00,
2013-06-10 13:52:00,94.0,70.0,29.89,SSE,156,0.0,1.0,46,0.00,,,0.00,weatherlink.com 1.10,2013-06-10 18:52:00,
2013-06-10 14:07:00,93.6,70.0,29.89,NNW,344,0.0,10.0,46,0.00,,,0.00,weatherlink.com 1.10,2013-06-10 19:07:00,
2013-06-10 14:22:00,94.4,69.0,29.89,SE,136,0.0,2.0,43,0.00,,,0.00,weatherlink.com 1.10,2013-06-10 19:22:00,
2013-06-10 14:37:00,94.9,70.0,29.88,SSE,156,1.0,3.0,44,0.00,,,0.00,weatherlink.com 1.10,2013-06-10 19:37:00,
2013-06-10 14:52:00,94.6,69.0,29.87,ESE,121,0.0,2.0,43,0.00,,,0.00,weatherlink.com 1.10,2013-06-10 19:52:00,
2013-06-10 15:07:00,94.4,69.0,29.87,NNE,15,1.0,4.0,43,0.00,,,0.00,weatherlink.com 1.10,2013-06-10 20:07:00,
2013-06-10 15:22:00,94.1,68.0,29.87,SE,132,0.0,6.0,43,0.00,,,0.00,weatherlink.com 1.10,2013-06-10 20:22:00,
2013-06-10 15:37:00,95.0,68.0,29.87,East,79,2.0,4.0,42,0.00,,,0.00,weatherlink.com 1.10,2013-06-10 20:37:00,
2013-06-10 15:52:00,96.2,68.0,29.86,SSE,156,1.0,3.0,40,0.00,,,0.00,weatherlink.com 1.10,2013-06-10 20:52:00,
2013-06-10 16:07:00,97.6,69.0,29.86,ENE,58,0.0,1.0,40,0.00,,,0.00,weatherlink.com 1.10,2013-06-10 21:07:00,
2013-06-10 16:22:00,96.5,68.0,29.86,WSW,245,0.0,6.0,39,0.00,,,0.00,weatherlink.com 1.10,2013-06-10 21:22:00,
2013-06-10 16:37:00,96.5,67.0,29.86,WSW,242,1.0,4.0,38,0.00,,,0.00,weatherlink.com 1.10,2013-06-10 21:37:00,
2013-06-10 16:52:00,97.9,68.0,29.86,East,84,0.0,3.0,38,0.00,,,0.00,weatherlink.com 1.10,2013-06-10 21:52:00,
2013-06-10 17:07:00,97.2,65.0,29.86,SE,141,1.0,6.0,35,0.00,,,0.00,weatherlink.com 1.10,2013-06-10 22:07:00,
2013-06-10 17:22:00,97.0,66.0,29.86,ENE,63,1.0,6.0,36,0.00,,,0.00,weatherlink.com 1.10,2013-06-10 22:22:00,
2013-06-10 17:37:00,97.0,66.0,29.86,South,174,0.0,7.0,36,0.00,,,0.00,weatherlink.com 1.10,2013-06-10 22:37:00,
2013-06-10 17:52:00,96.8,67.0,29.86,ESE,122,1.0,2.0,38,0.00,,,0.00,weatherlink.com 1.10,2013-06-10 22:52:00,
2013-06-10 18:07:00,95.4,65.0,29.86,ESE,118,1.0,11.0,37,0.00,,,0.00,weatherlink.com 1.10,2013-06-10 23:07:00,
2013-06-10 18:22:00,95.8,67.0,29.86,West,281,0.0,2.0,39,0.00,,,0.00,weatherlink.com 1.10,2013-06-10 23:22:00,
2013-06-10 18:37:00,95.5,67.0,29.86,East,91,0.0,4.0,39,0.00,,,0.00,weatherlink.com 1.10,2013-06-10 23:37:00,
2013-06-10 18:52:00,94.8,66.0,29.86,NW,308,2.0,3.0,39,0.00,,,0.00,weatherlink.com 1.10,2013-06-10 23:52:00,
2013-06-10 19:07:00,95.7,66.0,29.86,SSW,198,0.0,2.0,38,0.00,,,0.00,weatherlink.com 1.10,2013-06-11 00:07:00,
2013-06-10 19:22:00,94.3,66.0,29.86,NW,305,0.0,3.0,39,0.00,,,0.00,weatherlink.com 1.10,2013-06-11 00:22:00,
2013-06-10 19:37:00,94.0,68.0,29.86,West,272,0.0,1.0,42,0.00,,,0.00,weatherlink.com 1.10,2013-06-11 00:37:00,
2013-06-10 19:52:00,91.1,67.0,29.86,North,9,0.0,1.0,45,0.00,,,0.00,weatherlink.com 1.10,2013-06-11 00:52:00,
2013-06-10 20:07:00,87.9,67.0,29.87,North,10,0.0,1.0,50,0.00,,,0.00,weatherlink.com 1.10,2013-06-11 01:07:00,
2013-06-10 20:22:00,85.8,67.0,29.87,North,10,0.0,1.0,54,0.00,,,0.00,weatherlink.com 1.10,2013-06-11 01:22:00,
2013-06-10 20:37:00,84.8,67.0,29.87,NNE,29,0.0,1.0,56,0.00,,,0.00,weatherlink.com 1.10,2013-06-11 01:37:00,
2013-06-10 20:52:00,83.8,67.0,29.88,NNE,29,0.0,0.0,58,0.00,,,0.00,weatherlink.com 1.10,2013-06-11 01:52:00,
2013-06-10 21:07:00,82.8,68.0,29.88,NNE,28,0.0,0.0,61,0.00,,,0.00,weatherlink.com 1.10,2013-06-11 02:07:00,
2013-06-10 21:22:00,82.1,68.0,29.89,NNE,29,0.0,1.0,63,0.00,,,0.00,weatherlink.com 1.10,2013-06-11 02:22:00,
2013-06-10 21:37:00,81.9,69.0,29.89,NNE,29,0.0,1.0,64,0.00,,,0.00,weatherlink.com 1.10,2013-06-11 02:37:00,
2013-06-10 21:52:00,81.5,69.0,29.90,NNE,29,0.0,1.0,66,0.00,,,0.00,weatherlink.com 1.10,2013-06-11 02:52:00,
2013-06-10 22:07:00,81.0,69.0,29.90,NNE,29,0.0,0.0,67,0.00,,,0.00,weatherlink.com 1.10,2013-06-11 03:07:00,
2013-06-10 22:22:00,80.4,69.0,29.91,NNE,29,0.0,0.0,68,0.00,,,0.00,weatherlink.com 1.10,2013-06-11 03:22:00,
2013-06-10 22:37:00,80.2,69.0,29.91,NNE,29,0.0,1.0,69,0.00,,,0.00,weatherlink.com 1.10,2013-06-11 03:37:00,
2013-06-10 22:52:00,79.8,69.0,29.91,NNE,28,0.0,1.0,70,0.00,,,0.00,weatherlink.com 1.10,2013-06-11 03:52:00,
2013-06-10 23:07:00,79.0,70.0,29.91,NNE,29,0.0,1.0,73,0.00,,,0.00,weatherlink.com 1.10,2013-06-11 04:07:00,
2013-06-10 23:22:00,78.3,69.0,29.91,NNE,29,0.0,0.0,74,0.00,,,0.00,weatherlink.com 1.10,2013-06-11 04:22:00,
2013-06-10 23:37:00,77.7,69.0,29.91,NNE,29,0.0,0.0,74,0.00,,,0.00,weatherlink.com 1.10,2013-06-11 04:37:00,
2013-06-10 23:52:00,77.2,69.0,29.91,NNE,28,0.0,1.0,76,0.00,,,0.00,weatherlink.com 1.10,2013-06-11 04:52:00,